Location: Melizzano
(41.1500°N, 14.5000°E)
Time: 06:30:27
(UTC+00:00)

Cosmos 1666 - Pass Details

Date: 11 May 2021
Orbit: 495 x 519 km, 82.5° (Epoch: 20 June)

Event Time Altitude Azimuth Distance (km) Brightness Sun altitude
Rises 20:55:10 0° 345° (NNW) 2,595 7.5 -24.2°
Reaches altitude 10° 20:57:21 10° 338° (NNW) 1,705 6.4 -24.4°
Enters shadow 21:00:36 42° 281° (W) 724 3.6 -24.8°
